Regional Weather Roundup
Issued by NWS

Home | Current Version | Previous Version | Graphics & Text | Print | Product List | Glossary Off
Versions: 1 2 3 4 5 6 7 8 9 10 11 12 13 14 15 16 17 18 19 20 21 22 23 24 25 26 27 28 29 30 31 32 33 34 35 36 37 38 39 40 41 42 43 44 45 46 47 48 49 50

041
ASUS43 KMKX 240200
RWRWI

WISCONSIN REGIONAL WEATHER ROUNDUP
NATIONAL WEATHER SERVICE MILWAUKEE/SULLIVAN WI
900 PM CDT THU MAR 23 2017

NOTE: "FAIR" INDICATES FEW OR NO CLOUDS BELOW 12,000 FEET WITH NO
SIGNIFICANT WEATHER AND/OR OBSTRUCTIONS TO VISIBILITY.

WIZ001-002-006>008-014>016-023>028-240300-
NORTHWEST WISCONSIN

CITY           SKY/WX    TMP DP  RH WIND       PRES   REMARKS
SUPERIOR ARPT  MIX PCPN  33  32  96 NE3       29.94R
ASHLAND        LGT RAIN  33  30  88 NW7       29.96R FOG     WCI  27
HAYWARD        LGT RAIN  36  29  75 CALM      29.92R
SIREN          MIX PCPN  34  32  93 CALM      29.91R
CUMBERLAND     CLOUDY    36  27  69 S3        29.89R
RICE LAKE      CLOUDY    39  27  62 SE3       29.90R
CHETEK         CLOUDY    40  29  66 S8        29.90R WCI  34
LADYSMITH      CLOUDY    38  28  67 S5        29.91R WCI  34
EAU CLAIRE     NOT AVBL
MENOMONIE      CLOUDY    40  33  75 SE8       29.90R WCI  34
NEW RICHMOND   CLOUDY    37  33  83 S7        29.87R FOG     WCI  32
OSCEOLA        HVY RAIN  37  36  98 E3        29.90S
$$

WIZ003>005-009-010-017-018-240300-
NORTH CENTRAL WISCONSIN

CITY           SKY/WX    TMP DP  RH WIND       PRES   REMARKS
MANITOWISH WTR CLOUDY    33  27  76 SE7       29.86F WCI  27
ARBOR VITAE    LGT RAIN  37  26  67 SE3       29.87F
WOODRUFF       LGT RAIN  37  26  67 SE3       29.87F
RHINELANDER    LGT RAIN  37  25  61 S6        29.89F WCI  32
EAGLE RIVER    LGT RAIN  34  23  65 SE6       29.90F WCI  29
LAND O LAKES   CLOUDY    34  25  69 SE7       29.90F WCI  28
PHILLIPS       CLOUDY    36  24  63 S7        29.86S WCI  30
TOMAHAWK       LGT RAIN  34  27  74 SE3       29.88F
MEDFORD        CLOUDY    35  27  70 S10       29.89R WCI  28
MERRILL        LGT RAIN  37  27  68 S7G17     29.88F WCI  31
$$

WIZ029-030-035-036-043>047-240300-
CENTRAL WISCONSIN

CITY           SKY/WX    TMP DP  RH WIND       PRES   REMARKS
WAUSAU         CLOUDY    36  28  73 S13       29.91S WCI  27
MOSINEE        CLOUDY    36  28  75 SE10G16   29.91F WCI  28
MARSHFIELD     CLOUDY    38  28  67 S14       29.90R WCI  30
STEVENS POINT  CLOUDY    35  28  75 E7        29.93F WCI  29
WAUPACA        LGT RAIN  37  32  81 E10       29.96F WCI  30
WAUTOMA        CLOUDY    38  32  79 S6        29.97S WCI  33
WISC RAPIDS    CLOUDY    39  30  70 SE8       29.93F WCI  33
CAMP DOUGLAS   CLOUDY    37  32  81 SE10      29.92R WCI  30
$$

WIZ011>013-019>022-031-037>040-048>050-240300-
NORTHEAST WISCONSIN

CITY           SKY/WX    TMP DP  RH WIND       PRES   REMARKS
ANTIGO         MIX PCPN  32  28  83 SE15      29.87F WCI  22
SHAWANO        CLOUDY    37  28  67 SE7       29.97F WCI  32
OCONTO         CLOUDY    36  26  68 S9G16     30.00F WCI  29
STURGEON BAY   LGT RAIN  37  26  64 S17G23    30.01F WCI  27
GREEN BAY      CLOUDY    37  29  72 S13       30.00F WCI  29
MANITOWOC      NOT AVBL
APPLETON       LGT RAIN  36  28  75 SE10      29.97F WCI  28
CLINTONVILLE   CLOUDY    36  27  69 S9        29.98F WCI  29
OSHKOSH        CLOUDY    37  30  75 VRB5      29.98F WCI  33
$$

WIZ032>034-041-042-053>061-240300-
SOUTHWEST WISCONSIN

CITY           SKY/WX    TMP DP  RH WIND       PRES   REMARKS
LA CROSSE      CLOUDY    41  35  79 CALM      29.93R
SPARTA         CLOUDY    38  36  89 E3        29.92R
VIROQUA        CLOUDY    36  34  92 S17G23    29.87F WCI  26
BOSCOBEL       MOCLDY    42  33  70 CALM      29.95F
PRAIRIE DU CHI CLOUDY    40  34  78 E7        29.93R
PLATTEVILLE    CLOUDY    40  33  78 SE15      29.95F WCI  31
$$

WIZ056-057-062-063-064-067-068-240300-
SOUTH CENTRAL WISCONSIN

CITY           SKY/WX    TMP DP  RH WIND       PRES   REMARKS
REEDSBURG      CLOUDY    38  35  91 S7        29.97R WCI  33
BARABOO/DELLS  CLOUDY    38  34  85 S9        29.96R WCI  31
LONE ROCK      NOT AVBL
MINERAL POINT  CLOUDY    39  36  87 SE16      29.94F WCI  30
MADISON        CLOUDY    40  34  79 SE15      29.96F WCI  32
MIDDLETON      CLOUDY    39  36  88 SE12      29.96F WCI  32
WATERTOWN      RAIN      37  37  99 CALM      30.05F
MONROE         CLOUDY    39  32  75 SE13      29.98F WCI  32
JANESVILLE     CLOUDY    45  34  65 SE8       30.01F
$$

WIZ051-052-058>065-066-070>072-240300-
SOUTHEAST WISCONSIN

CITY           SKY/WX    TMP DP  RH WIND       PRES   REMARKS
MILWAUKEE      TSTM      41  33  73 CALM      30.09R
WAUKESHA       RAIN      37  34  87 E7        30.04F WCI  32
MILWAUKEE/TIMM TSTM      39  32  75 E7        30.06S WCI  34
RACINE         TSTM      41  35  79 VRB6      30.11R
KENOSHA        CLOUDY    44  33  65 N8        30.07R
FOND DU LAC    CLOUDY    38  29  70 S17       29.94F WCI  28
SHEBOYGAN      RAIN      36  31  82 S14G22    29.98F WCI  27
WEST BEND      RAIN      36  34  93 E6        30.07F WCI  31
JUNEAU         CLOUDY    36  32  86 SE12      29.98F WCI  28
$$

LSZ147-162-240300-
LAKE SUPERIOR

STATION/POSITION TIME  TEMP    WIND        PRES    WAVE
                       AIR SEA DIR/SP/G            HT/PER
                 (UTC) (F)     (DEG/KT/KT) (MB)    (FT/S)
DEVILS ISLAND    0100   33      80/  6/  7 1013.7S
PORT WING        0140   35      CALM  /  5 1014.6R
SAXON HARBOR     0130   34      CALM  /  3 1012.5R
$$

LMZ867-665-643>646-240300-
LAKE MICHIGAN

STATION/POSITION TIME  TEMP    WIND        PRES    WAVE
                       AIR SEA DIR/SP/G            HT/PER
                 (UTC) (F)     (DEG/KT/KT) (MB)    (FT/S)
CHAMBERS ISLAND  0140   35     140/  9/ 16 1015.6F
NORTHPORT PIER   0140   35     150/  6/ 10 1017.3F
SISTER BAY       0005   37     170/ 16/ 22   N/A
KEWAUNEE LAKESHO 0130   38     190/ 14/ 19 1017.4F
SHEBOYGAN LAKESH 0100   39     190/ 13/ 15 1020.1R
PORT WASHINGTON  0140   39     160/  4/  5 1020.7R
MILWAUKEE LAKESH 0130   39     140/  8/  9   N/A
KENOSHA   LAKESH 0100   39     170/ 16/ 20 1016.3
$$

TC  - TEMPERATURE IN CELSIUS
VSB - VISIBILITY IN STATUTE MILES
WCI - WIND CHILL INDEX
HX  - HEAT INDEX





USA.gov is the U.S. government's official web portal to all federal, state and local government web resources and services.